Current Version              Previous Version:    01  02  03  04  05  06  07  08  09  10  11  12  13  14  15  16  17  18  19  20  21  22  23  24  25  26  27  28  29  30  
   31  32  33  34  35  36  37  38  39  40  41  42  43  44  45  46  47  48  49  50  51  52  53  54  55  56  57  58  59  60  

[Printable]
515
ASUS44 KLUB 172001
RWRTX
WEST TEXAS WEATHER ROUNDUP
NATIONAL WEATHER SERVICE LUBBOCK TX
200 PM CST WED DEC 17 2014

NOTE: "FAIR" INDICATES FEW OR NO CLOUDS BELOW 12,000 FEET WITH NO
SIGNIFICANT WEATHER AND/OR OBSTRUCTIONS TO VISIBILITY.

TXZ004-006>008-010-012-014-016-OKZ002-172100-
TEXAS PANHANDLE/OKLAHOMA PANHANDLE

CITY           SKY/WX    TMP DP  RH WIND       PRES   REMARKS
AMARILLO       CLOUDY    37  33  85 S14       29.98F WCI  28
BORGER         CLOUDY    41  34  76 S16G24    29.97F
DALHART        PTSUNNY   50  32  50 S21       29.92F
GUYMON         PTSUNNY   45  31  58 S15       29.93F
HEREFORD       PTSUNNY   46  33  61 S14       29.97F
$$

TXZ026-029-035-045-048-172100-
SOUTHERN PANHANDLE/SOUTH PLAINS/ROLLING PLAINS

CITY           SKY/WX    TMP DP  RH WIND       PRES   REMARKS
CHILDRESS      CLOUDY    42  37  82 SE9       30.05F
LUBBOCK        CLOUDY    49  36  61 S9        29.97F
$$

TXZ052-054-060>062-072-078-127-140-154-169-172100-
PERMIAN BASIN/CONCHO VALLEY/BIG COUNTRY/EDWARDS PLATEAU

CITY           SKY/WX    TMP DP  RH WIND       PRES   REMARKS
ABILENE        CLOUDY    49  37  63 S13       30.03F
JUNCTION       CLOUDY    50  47  89 E3        30.04F
MIDLAND        SUNNY     60  44  55 S15       29.97F
ODESSA         SUNNY     61  40  45 SW15G25   29.98F
SAN ANGELO     CLOUDY    56  47  71 S8        30.02F
WINK           SUNNY     63  34  33 W13G21    29.96F
$$

TXZ055-058-074-075-080-082-172100-
FAR WEST/SOUTHWEST MOUNTAINS/TRANS PECOS

CITY           SKY/WX    TMP DP  RH WIND       PRES   REMARKS
DRYDEN           N/A     54  47  77 NE6       30.01F
EL PASO        MOSUNNY   60  30  32 W21G37    30.02F
FORT STOCKTON  SUNNY     61  40  45 CALM      29.98F
MARFA          SUNNY     63  28  27 W13G24    30.06F
$$

TXZ014-016-019-021>030-083-172100
TEXAS TECH WEST TEXAS MESONET/TEXAS PANHANDLE/NORTHERN SOUTH PLAINS

CITY           SKY/WX    TMP DP  RH WIND       PRES   REMARKS
ABERNATHY 5ENE   N/A     46  35  65 S9        30.00F
AMARILLO 9NNE    N/A     38  32  78 S13       29.97F WCI  31
AMARILLO 7SSE    N/A     38  33  82 SE12      29.98F WCI  30
AMHERST 1NE      N/A     52  35  51 S8        29.96F
BOOTLEG 11WNW    N/A     44  31  59 SW17      29.96F
CANADIAN 6E      N/A     37  35  91 S13       30.02F WCI  29
CAPROCK CYN SP   N/A     39  35  86 E6        30.03F WCI  35
CHILDRESS 2NNE   N/A     39  37  91 E10       30.05F WCI  32
CLARENDON 2WSW   N/A     37  35  92 SE9       30.01F WCI  30
CLAUDE 12SW      N/A     35  34  96 SE9       29.99F WCI  28
DIMMITT 2NE      N/A     44  32  61 S12       29.97F
FLOYDADA 2NNE    N/A     42  34  71 SE8       30.00S
FRIONA 2NE       N/A     46  32  58 S12       29.97F
GOODLETT 3W      N/A     40  37  87 E10       30.06F WCI  34
HART 3N          N/A     45  35  66 S8        29.98F
HEREFORD 2NW     N/A     44  30  57 S13       29.96F
MCLEAN 1E        N/A     35  34  96 SE10      30.00F WCI  28
MEMPHIS 1NE      N/A     40  36  87 E8        30.04F WCI  34
MULESHOE 2SSW    N/A     51  34  51 SW8       29.96F
OLTON 6S         N/A     50  34  54 S10       29.97F
PALO DURO SP     N/A     37  33  87 SE7       30.00F WCI  31
PAMPA 2E         N/A     35  35  98 SE15      29.98F WCI  26
PLAINVIEW 1S     N/A     44  35  73 S9        29.99F
SILVERTON 7ESE   N/A     38  33  85 E7        30.01F WCI  32
TULIA 2ENE       N/A     41  36  84 SE8       30.00F
UMBARGER 3NNE    N/A     41  31  68 S14       29.97F
$$

TXZ033>036-039>041-045>048-172100
TEXAS TECH WEST TEXAS MESONET/SOUTH PLAINS

CITY           SKY/WX    TMP DP  RH WIND       PRES   REMARKS
AIKEN 3WSW       N/A     42  35  78 S9        30.01S
ANDREWS 2NE      N/A     60  37  42 SW12      29.97
ANTON 6SSW       N/A     56  39  53 S13       29.96F
BROWNFIELD 2S    N/A     57  40  52 S15       29.96F
DENVR CTY 7WNW   N/A     57  34  41 SW15      29.95F
GAIL 2ESE        N/A     51  44  77 SE10      29.98F
LAMESA 2SE       N/A     56  45  67 S15       29.98F
LEVELLAND 4S     N/A     56  37  47 S15       29.96F
LUBBOCK 3WNW     N/A     52  38  59 S12       29.98F
MORTON 1ENE      N/A     56  36  47 SW14      29.94F
ODONNELL 1N      N/A     53  42  66 S12       29.98F
PLAINS 3N        N/A     58  35  43 SW14      29.95F
RALLS 1SE        N/A     45  34  63 SE9       30.00F
REESE CENTER     N/A     52  39  61 S14       29.97F
SEAGRAVES 1SW    N/A     59  39  48 S16       29.95F
SEMINOLE 2NNE    N/A     60  37  42 SW12      29.96F
SLATON 2NE       N/A     50  37  60 S13       29.99F
SNYDER 3E        N/A     49  40  69 S15       29.99F
SUNDOWN 8SW      N/A     58  36  43 S14       29.95F
TAHOKA 3NNE      N/A     53  39  59 S13       29.98F
WOLFFORTH 6SSW   N/A     53  41  63 S15       29.97F
$$

TXZ031-032-036>038-042>044-172100-
TEXAS TECH WEST TEXAS MESONET/ROLLING PLAINS

CITY           SKY/WX    TMP DP  RH WIND       PRES   REMARKS
ASPERMONT 3NE    N/A     49  35  59 SE8       30.03F
FLUVANNA 3WNW    N/A     46  42  87 S12       29.99F
GRAHAM 5SSW      N/A     50  39  65 S12       29.98F
GUTHRIE 10WSW    N/A     46  34  62 SE7       30.02F
HASKELL 1NW      N/A     42  37  82 E7        30.04F
JAYTON 1SSE      N/A     49  36  59 SE7       30.02F
KNOX CITY 3NW    N/A     44  36  74 E9        30.06F
LK A HENRY 1NW   N/A     49  41  73 S6        30.01F
NORTHFIELD 1S    N/A     42  38  84 SE8       30.03F
ODELL 4ENE       N/A     39  38  94 E13       30.10F WCI  31
PADUCAH 10SW     N/A     43  37  80 E7        30.04F
POST 1NE         N/A     51  39  64 S9        29.99F
RRING SPRGS 3N   N/A     42  37  81 SE7       30.01F
SEYMOUR 3NW      N/A     40  38  92 E10       30.08F WCI  34
SPUR 1W          N/A     47  34  61 SE6       30.01F
WHITE RVR 6NE    N/A     46  34  62 SE9       30.00F
$$

TXZ052-054-060>062-072-078-127-140-154-169-172100-
TEXAS TECH WEST TEXAS MESONET/PERMIAN BASIN/
CONCHO VALLEY/BIG COUNTRY/EDWARDS PLATEAU

CITY           SKY/WX    TMP DP  RH WIND       PRES   REMARKS
COYANOSA 2N      N/A     64  37  37 CALM      29.99F
JUNCTION 1SSW    N/A     51  48  92 S3        30.05F
MERTZON 3NNE     N/A     55  46  73 S9        30.03F
SAN ANGELO 7NW   N/A     54  45  72 S7        30.04F
STRLNG CT 4WSW   N/A     53  46  76 S10       30.02F
ST LAWRNCE 5SW   N/A     53  45  76 S16       30.00F
SWEETWATR 11SW   N/A     48  39  70 S13       30.03F
WALL 1E          N/A     54  46  74 S8        30.04F
$$

TXZ055-058-074-075-080-082-172100-
TEXAS TECH WEST TEXAS MESONET/FAR WEST/SOUTHWEST MOUNTAINS/TRANS PECOS

CITY           SKY/WX    TMP DP  RH WIND       PRES   REMARKS
PRSMN GAP BBNP   N/A     61  42  49 S1        30.01F
$$